When you browse on this site, cookies collect data to enhance your experience and personalize the content and advertising you see.
Visit our Privacy Policy to learn more. By continuing to use the site, you agree to this use of cookies and data.
  • In Österreich
  • Länderverzeichnis
  • Für 7 Tage
  • Wassertemperatur
  • Wetterkarte
  • News
  • Widgets
  • user-avatar
    Anmelden

    Stündliche Wetter Tula de Allende

    Heute, 25 August, Sonntag

    Zeit Temperatur Niederschläge Wind Luftdruck Luftfeuchtigkeit
    00:00 +16°C° 0 mm 1 m/S 595 mmHg 86%
    01:00 +16°C° 0 mm 1 m/S 594 mmHg 86%
    02:00 +16°C° 0 mm 1 m/S 594 mmHg 85%
    03:00 +16°C° 0 mm 1 m/S 594 mmHg 85%
    04:00 +15°C° 0 mm 1 m/S 594 mmHg 84%
    05:00 +15°C° 0 mm 1 m/S 594 mmHg 84%
    06:00 +18°C° 0 mm 1 m/S 595 mmHg 78%
    07:00 +20°C° 0 mm 1 m/S 596 mmHg 73%
    08:00 +19°C° 0 mm 0 m/S 597 mmHg 67%
    09:00 +23°C° 0.1 mm 1 m/S 597 mmHg 63%
    10:00 +24°C° 0.1 mm 1 m/S 597 mmHg 59%
    11:00 +26°C° 0.1 mm 1 m/S 597 mmHg 55%
    12:00 +26°C° 0.4 mm 2 m/S 597 mmHg 54%
    13:00 +26°C° 0.4 mm 2 m/S 596 mmHg 54%
    14:00 +26°C° 0.4 mm 2 m/S 596 mmHg 54%
    15:00 +26°C° 0.6 mm 2 m/S 595 mmHg 58%
    16:00 +25°C° 0.6 mm 2 m/S 595 mmHg 63%
    17:00 +24°C° 0.6 mm 2 m/S 595 mmHg 68%
    18:00 +21°C° 1.3 mm 2 m/S 595 mmHg 73%
    19:00 +21°C° 1.3 mm 1 m/S 594 mmHg 78%
    20:00 +19°C° 1.3 mm 1 m/S 594 mmHg 83%
    21:00 +19°C° 1 mm 1 m/S 594 mmHg 84%
    22:00 +18°C° 1 mm 1 m/S 594 mmHg 85%
    23:00 +18°C° 1 mm 1 m/S 594 mmHg 86%

    Morgen, 26 August, Montag

    Zeit Temperatur Niederschläge Wind Luftdruck Luftfeuchtigkeit
    00:00 +18°C° 0.4 mm 1 m/S 594 mmHg 86%
    01:00 +16°C° 0.4 mm 1 m/S 593 mmHg 87%
    02:00 +16°C° 0.4 mm 1 m/S 593 mmHg 87%
    03:00 +16°C° 0.2 mm 1 m/S 593 mmHg 88%
    04:00 +15°C° 0.2 mm 1 m/S 592 mmHg 88%
    05:00 +15°C° 0.2 mm 1 m/S 592 mmHg 89%
    06:00 +18°C° 0 mm 1 m/S 593 mmHg 84%
    07:00 +19°C° 0 mm 1 m/S 594 mmHg 79%
    08:00 +19°C° 0 mm 0 m/S 595 mmHg 74%
    09:00 +22°C° 0.3 mm 1 m/S 595 mmHg 68%
    10:00 +24°C° 0.3 mm 1 m/S 596 mmHg 62%
    11:00 +25°C° 0.3 mm 1 m/S 596 mmHg 56%
    12:00 +25°C° 0.7 mm 1 m/S 596 mmHg 57%
    13:00 +25°C° 0.7 mm 2 m/S 595 mmHg 57%
    14:00 +26°C° 0.7 mm 2 m/S 595 mmHg 58%
    15:00 +24°C° 1.6 mm 2 m/S 594 mmHg 64%
    16:00 +23°C° 1.6 mm 2 m/S 593 mmHg 70%
    17:00 +21°C° 1.6 mm 2 m/S 593 mmHg 76%
    18:00 +20°C° 1.2 mm 2 m/S 593 mmHg 77%
    19:00 +20°C° 1.2 mm 1 m/S 593 mmHg 79%
    20:00 +19°C° 1.2 mm 1 m/S 594 mmHg 81%
    21:00 +18°C° 0.3 mm 1 m/S 594 mmHg 82%
    22:00 +18°C° 0.3 mm 1 m/S 594 mmHg 83%
    23:00 +16°C° 0.3 mm 1 m/S 593 mmHg 84%

    übermorgen, 27 August, Dienstag

    Zeit Temperatur Niederschläge Wind Luftdruck Luftfeuchtigkeit
    00:00 +16°C° 0.4 mm 1 m/S 593 mmHg 86%
    01:00 +15°C° 0.4 mm 1 m/S 593 mmHg 87%
    02:00 +15°C° 0.4 mm 1 m/S 592 mmHg 89%
    03:00 +15°C° 0 mm 1 m/S 592 mmHg 89%
    04:00 +15°C° 0 mm 1 m/S 592 mmHg 90%
    05:00 +14°C° 0 mm 1 m/S 592 mmHg 90%
    06:00 +15°C° 0 mm 0 m/S 593 mmHg 85%
    07:00 +16°C° 0 mm 0 m/S 594 mmHg 80%
    08:00 +18°C° 0 mm 0 m/S 595 mmHg 75%
    09:00 +21°C° 0 mm 1 m/S 595 mmHg 70%
    10:00 +23°C° 0 mm 2 m/S 596 mmHg 64%
    11:00 +24°C° 0 mm 2 m/S 596 mmHg 58%
    12:00 +25°C° 0.1 mm 3 m/S 596 mmHg 56%
    13:00 +25°C° 0.1 mm 3 m/S 595 mmHg 53%
    14:00 +26°C° 0.1 mm 4 m/S 595 mmHg 51%
    15:00 +23°C° 0.7 mm 4 m/S 595 mmHg 59%
    16:00 +22°C° 0.7 mm 4 m/S 594 mmHg 67%
    17:00 +21°C° 0.7 mm 5 m/S 593 mmHg 75%
    18:00 +20°C° 1.2 mm 3 m/S 594 mmHg 78%
    19:00 +19°C° 1.2 mm 2 m/S 594 mmHg 81%
    20:00 +19°C° 1.2 mm 1 m/S 595 mmHg 84%
    21:00 +18°C° 0.5 mm 1 m/S 595 mmHg 86%
    22:00 +18°C° 0.5 mm 1 m/S 595 mmHg 87%
    23:00 +18°C° 0.5 mm 1 m/S 595 mmHg 88%

    28 August, Mittwoch

    Zeit Temperatur Niederschläge Wind Luftdruck Luftfeuchtigkeit
    00:00 +18°C° 0.6 mm 1 m/S 595 mmHg 87%
    01:00 +16°C° 0.6 mm 1 m/S 595 mmHg 87%
    02:00 +16°C° 0.6 mm 1 m/S 595 mmHg 86%
    03:00 +16°C° 0.3 mm 1 m/S 595 mmHg 87%
    04:00 +15°C° 0.3 mm 1 m/S 595 mmHg 87%
    05:00 +15°C° 0.3 mm 1 m/S 595 mmHg 87%
    06:00 +18°C° 0 mm 1 m/S 595 mmHg 82%
    07:00 +17°C° 0 mm 0 m/S 596 mmHg 77%
    08:00 +18°C° 0 mm 0 m/S 597 mmHg 72%
    09:00 +22°C° 0.2 mm 1 m/S 597 mmHg 67%
    10:00 +23°C° 0.2 mm 1 m/S 597 mmHg 62%
    11:00 +25°C° 0.2 mm 2 m/S 598 mmHg 57%
    12:00 +25°C° 0.1 mm 3 m/S 597 mmHg 55%
    13:00 +26°C° 0.1 mm 4 m/S 597 mmHg 54%
    14:00 +26°C° 0.1 mm 5 m/S 597 mmHg 52%
    15:00 +25°C° 0.5 mm 5 m/S 596 mmHg 59%
    16:00 +22°C° 0.5 mm 5 m/S 596 mmHg 67%
    17:00 +21°C° 0.5 mm 5 m/S 595 mmHg 74%
    18:00 +19°C° 0 mm 4 m/S 595 mmHg 80%
    19:00 +17°C° 0 mm 3 m/S 595 mmHg 85%
    20:00 +15°C° 0 mm 1 m/S 595 mmHg 91%
    21:00 +15°C° 0 mm 1 m/S 595 mmHg 92%
    22:00 +15°C° 0 mm 1 m/S 595 mmHg 93%
    23:00 +13°C° 0 mm 0 m/S 595 mmHg 95%

    29 August, Donnerstag

    Zeit Temperatur Niederschläge Wind Luftdruck Luftfeuchtigkeit
    00:00 +13°C° 0 mm 0 m/S 595 mmHg 95%
    01:00 +13°C° 0 mm 0 m/S 594 mmHg 96%
    02:00 +12°C° 0 mm 0 m/S 594 mmHg 96%
    03:00 +12°C° 0 mm 0 m/S 594 mmHg 96%
    04:00 +13°C° 0 mm 0 m/S 594 mmHg 95%
    05:00 +13°C° 0 mm 0 m/S 595 mmHg 95%
    06:00 +14°C° 0 mm 0 m/S 595 mmHg 89%
    07:00 +15°C° 0 mm 0 m/S 596 mmHg 84%
    08:00 +16°C° 0 mm 0 m/S 596 mmHg 79%
    09:00 +20°C° 0 mm 1 m/S 597 mmHg 69%
    10:00 +22°C° 0 mm 1 m/S 597 mmHg 59%
    11:00 +24°C° 0 mm 2 m/S 598 mmHg 48%
    12:00 +24°C° 0 mm 2 m/S 597 mmHg 46%
    13:00 +25°C° 0 mm 3 m/S 597 mmHg 43%
    14:00 +26°C° 0 mm 4 m/S 597 mmHg 41%
    15:00 +23°C° 0 mm 4 m/S 596 mmHg 51%
    16:00 +22°C° 0 mm 4 m/S 596 mmHg 60%
    17:00 +21°C° 0 mm 5 m/S 595 mmHg 70%
    18:00 +19°C° 0.3 mm 4 m/S 595 mmHg 78%
    19:00 +17°C° 0.3 mm 3 m/S 595 mmHg 86%
    20:00 +16°C° 0.3 mm 2 m/S 595 mmHg 94%
    21:00 +15°C° 0 mm 1 m/S 595 mmHg 94%
    22:00 +15°C° 0 mm 1 m/S 595 mmHg 95%
    23:00 +13°C° 0 mm 0 m/S 595 mmHg 95%

    30 August, Freitag

    Zeit Temperatur Niederschläge Wind Luftdruck Luftfeuchtigkeit
    00:00 +13°C° 0 mm 0 m/S 594 mmHg 95%
    01:00 +13°C° 0 mm 0 m/S 594 mmHg 95%
    02:00 +12°C° 0 mm 0 m/S 594 mmHg 95%
    03:00 +12°C° 0 mm 0 m/S 594 mmHg 95%
    04:00 +12°C° 0 mm 0 m/S 594 mmHg 95%
    05:00 +12°C° 0 mm 0 m/S 594 mmHg 94%
    06:00 +14°C° 0 mm 0 m/S 595 mmHg 88%
    07:00 +15°C° 0 mm 0 m/S 595 mmHg 81%
    08:00 +17°C° 0 mm 0 m/S 596 mmHg 75%
    09:00 +21°C° 0 mm 1 m/S 597 mmHg 65%
    10:00 +22°C° 0 mm 1 m/S 597 mmHg 55%
    11:00 +24°C° 0 mm 2 m/S 597 mmHg 46%
    12:00 +25°C° 0 mm 3 m/S 597 mmHg 43%
    13:00 +25°C° 0 mm 3 m/S 596 mmHg 41%
    14:00 +26°C° 0 mm 4 m/S 596 mmHg 38%
    15:00 +25°C° 0 mm 4 m/S 596 mmHg 46%
    16:00 +22°C° 0 mm 4 m/S 595 mmHg 53%
    17:00 +21°C° 0 mm 5 m/S 595 mmHg 61%
    18:00 +19°C° 0.1 mm 3 m/S 594 mmHg 71%
    19:00 +17°C° 0.1 mm 2 m/S 594 mmHg 80%
    20:00 +15°C° 0.1 mm 1 m/S 594 mmHg 90%
    21:00 +15°C° 0 mm 1 m/S 594 mmHg 91%
    22:00 +13°C° 0 mm 0 m/S 594 mmHg 93%
    23:00 +13°C° 0 mm 0 m/S 594 mmHg 94%
    Mehr zeigen